GEN1A-1

导读

GEN1A-1(NORAD编号69004),也常被称为Genesis I,是大航天时代公司(Bigelow Aerospace)发射的可充气式太空舱原型卫星,属于商业化太空站的技术验证任务。该卫星于2006年7月12日发射入轨,主要用于验证充气式太空舱的在轨展开、结构稳定性以及生命保障相关技术,为后续可扩展商业空间站研发铺路。卫星配备8组砷化镓太阳能电池,总功率1千瓦,携带13台相机用于内外状态监测,原设计任务时长仅6个月,实际在轨运行超过2.5年,远超预期。

Basic Information
目录编号:
69004
目录名称:
GEN1A-1
国际标识:
2026-100AA
轨道中心:
EARTH
卫星名称:
GEN1A-1
卫星全名:
GEN1A-1
卫星状态:
在轨 (已飞行125 天)
发射日期:
2026-05-03 UTC
国别 :
美国 (US)
星等 :
--
Orbit Information
数据来源 国际轨道数据
星历时间: 2026-09-05T14:17:18+0800
10小时前
查看轨道信息
半长轴: 6882.336km
偏心率: 0.0006096
轨道倾角: 97.393°
近地点辐角 92.506°
升交点赤经 144.582°
平近点角 267.687°
近地点: 500.003km
远地点: 508.395km
周期: 94.703分钟
每日圈数: 15.205441
Detailed Information
使用方式:
暂无
2D Orbit Map
3D Orbit Map
Orbit Altitude Analysis Chart
Orbit Inclination Analysis Chart
Orbit Comprehensive Analysis Chart
View Comprehensive Chart
Conjunction Data List
Event ID Objects TCA Miss Dist (km) Collision Risk Probability Collision Risk Index (CRI) Action
CDM_260905-025105-703706-900423
GEN1A-1 (69004)
2026-09-05T
02:51:12+0000
1.310 km
极远距离
1.05203E-5 中风险 0.55
CDM_260907-015006-605406-900423
OBJECT B (66054)
GEN1A-1 (69004)
2026-09-07T
01:50:22+0000
2.190 km
极远距离
2.320275E-6 低风险 0.42
CDM_260905-172304-029806-900425
ASNARO (40298)
GEN1A-1 (69004)
2026-09-05T
17:23:03+0000
2.278 km
极远距离
2.132537E-6 低风险 0.42
CDM_260906-184006-674106-900423
GEN1A-1 (69004)
2026-09-06T
18:40:36+0000
2.559 km
极远距离
1.705387E-6 低风险 0.4
CDM_260907-102806-671706-900422
GEN1A-1 (69004)
2026-09-07T
10:28:03+0000
2.715 km
极远距离
1.549682E-6 低风险 0.39
CDM_260906-201506-674106-900423
GEN1A-1 (69004)
2026-09-06T
20:15:20+0000
2.807 km
极远距离
1.475964E-6 低风险 0.38
CDM_260907-201506-843706-900421
GEN1A-1 (69004)
2026-09-07T
20:15:32+0000
2.527 km
极远距离
1.174697E-6 低风险 0.36
CDM_260906-115606-900406-902421
GEN1A-1 (69004)
BALKAN-2 (69024)
2026-09-06T
11:56:24+0000
2.509 km
极远距离
2.664112E-7 极低风险 0.24
CDM_260906-110406-900406-902422
GEN1A-1 (69004)
BALKAN-2 (69024)
2026-09-06T
11:04:54+0000
2.910 km
极远距离
2.276502E-7 极低风险 0.22